[[{"header":{"parameterUnit":"m.s-1","parameterCategory":1,"la1":30.2991,"la2":30.254,"lo1":-89.0895,"lo2":-89.0444,"dy":0.0017,"dx":0.0017,"nx":28,"ny":28,"refTime":"2023-09-25T03:00:00:Z","depth":0,"parameterNumber":2,"parameterNumberName":"U-component_of_WINDS"},"data":[0,0,0,0,0,0,0,0,0,0,0,0,0,0,0,0,0,0,0,0,0,0,0,0,0,0,0,0,0,0,0,0,0,0,0,0,0,0,0,0,0,0,0,0,0,0,0,0,0,0,0,0,0,0,0,0,0,0,-0.2029,-0.203,0,-0.207,-0.2071,-0.2071,-0.2042,-0.2041,-0.204,-0.2039,-0.2087,-0.2089,-0.2092,0,0,0,0,0,0,0,0,0,0,0,0,0,-0.1932,-0.1934,-0.2029,-0.203,-0.203,-0.207,-0.2071,-0.2071,-0.2043,-0.2041,-0.2039,-0.2038,-0.2086,-0.2089,-0.2092,0,0,0,0,0,0,0,0,0,0,0,0,0,-0.1974,-0.1935,-0.2029,-0.202,-0.202,-0.207,-0.2071,-0.2072,-0.2043,-0.2041,-0.2039,-0.2037,-0.2085,-0.2089,-0.2093,-0.2155,0,0,-0.2104,-0.2106,0,0,0,0,0,0,0,0,-0.1972,-0.1978,-0.2021,-0.2021,-0.2021,-0.2049,-0.2054,-0.21,-0.2043,-0.2035,-0.2039,-0.2036,-0.2076,-0.2081,-0.2093,-0.2157,-0.216,-0.2104,-0.2107,-0.2108,-0.2109,0,0,0,0,0,0,0,-0.1969,-0.1976,-0.2046,-0.2022,-0.2022,-0.2017,-0.2021,-0.2063,-0.2066,-0.2035,-0.2033,-0.2038,-0.2076,-0.2089,-0.2094,-0.216,-0.2104,-0.2108,-0.211,-0.2111,-0.2281,-0.2283,0,0,0,0,0,0,-0.1966,-0.1974,-0.2044,-0.2047,-0.1991,-0.202,-0.2024,-0.2042,-0.2066,-0.2067,-0.204,-0.2037,-0.2084,-0.209,-0.2096,-0.2172,-0.2108,-0.2112,-0.2114,-0.2279,-0.2282,-0.2284,0,0,0,0,0,0,-0.1964,-0.1972,-0.2043,-0.201,-0.2018,-0.2024,-0.2044,-0.2044,-0.2057,-0.2069,-0.207,-0.2052,-0.2083,-0.209,-0.2141,-0.2173,-0.2113,-0.2117,-0.2276,-0.228,-0.2283,-0.2325,0,0,0,0,0,0,-0.1961,-0.1972,-0.1994,-0.201,-0.202,-0.2085,-0.2046,-0.2046,-0.2063,-0.2059,-0.2081,-0.2083,-0.2082,-0.2135,-0.2145,-0.2178,-0.212,-0.2273,-0.2278,-0.2282,-0.2321,-0.2329,-0.2337,0,0,0,0,0,-0.1958,-0.2005,-0.1995,-0.2004,-0.2047,-0.2087,-0.2093,-0.2089,-0.2066,-0.209,-0.2097,-0.2082,-0.2168,-0.2141,-0.2151,-0.2186,-0.2271,-0.2277,-0.2281,-0.2317,-0.2328,-0.2337,0,0,0,0,0,0,-0.1994,-0.2007,-0.1996,-0.205,-0.2067,-0.2082,-0.2111,-0.21,-0.2125,-0.2121,-0.2117,-0.2122,-0.2175,-0.2185,-0.2155,-0.2249,-0.2217,-0.2224,-0.224,-0.225,-0.2258,-0.2255,-0.2123,0,0,0,0,0,-0.2008,-0.2037,-0.2047,-0.2094,-0.2103,-0.2106,-0.2123,-0.2118,-0.2137,-0.2145,-0.2156,-0.2177,-0.2209,-0.223,-0.226,-0.2322,-0.2328,-0.2351,-0.2359,-0.2365,-0.2373,-0.2409,-0.242,-0.2301,-0.2301,-0.2301,0,0,-0.2038,-0.2049,-0.2067,-0.2101,-0.2114,-0.2147,-0.2112,-0.2148,-0.2173,-0.2151,-0.2199,-0.2208,-0.2232,-0.2289,-0.2314,-0.2299,-0.2407,-0.2372,-0.2377,-0.2381,-0.2415,-0.2426,-0.2436,-0.2304,-0.2304,-0.2303,0,0,-0.2109,-0.2119,-0.2159,-0.2173,-0.2193,-0.2194,-0.2204,-0.2221,-0.2226,-0.2274,-0.2259,-0.2289,-0.2343,-0.2361,-0.2377,-0.2457,-0.2445,-0.2467,-0.2509,-0.2544,-0.2554,-0.2562,-0.2593,-0.2604,-0.2473,-0.2473,-0.2473,0,-0.2144,-0.219,-0.2182,-0.2219,-0.2236,-0.2216,-0.2258,-0.2273,-0.2302,-0.2315,-0.2296,-0.2365,-0.2379,-0.2441,-0.2461,-0.2474,-0.2487,-0.2465,-0.2553,-0.2561,-0.2569,-0.2598,-0.2609,-0.2476,-0.2476,-0.2475,-0.2475,0,-0.2234,-0.2266,-0.2297,-0.2324,-0.2344,-0.2383,-0.2384,-0.2406,-0.2399,-0.2404,-0.2455,-0.2471,-0.2504,-0.2519,-0.2513,-0.2581,-0.2571,-0.2553,-0.252,-0.2583,-0.261,-0.2621,-0.248,-0.2479,-0.2478,-0.2477,0,0,-0.2329,-0.2351,-0.2363,-0.2376,-0.2397,-0.2423,-0.2463,-0.2494,-0.2514,-0.2535,-0.257,-0.2617,-0.26,-0.2619,-0.2616,-0.2646,-0.2711,-0.2625,-0.2625,-0.2642,-0.279,-0.2805,-0.2817,-0.2703,-0.2705,-0.2706,-0.2788,0,-0.2403,-0.2469,-0.2464,-0.2529,-0.256,-0.2542,-0.2577,-0.2596,-0.2601,-0.2631,-0.2638,-0.2672,-0.2646,-0.2658,-0.2687,-0.2697,-0.2741,-0.2691,-0.2738,-0.274,-0.2735,-0.2831,-0.2847,-0.2923,-0.2799,-0.2801,-0.2802,0,-0.2497,-0.252,-0.2587,-0.2605,-0.2618,-0.2649,-0.2678,-0.2706,-0.2727,-0.2729,-0.275,-0.2742,-0.2786,-0.2751,-0.2812,-0.2778,-0.2798,-0.2806,-0.2809,-0.2814,-0.2776,-0.2842,-0.2947,-0.296,-0.2818,-0.2817,-0.2816,0,-0.2563,-0.2611,-0.2657,-0.2669,-0.269,-0.2713,-0.2723,-0.2742,-0.2762,-0.2788,-0.2801,-0.2833,-0.2851,-0.2877,-0.2879,-0.2853,-0.2942,-0.2907,-0.2947,-0.2947,-0.2968,-0.2967,-0.308,-0.2977,-0.2977,-0.2977,-0.2977,0,-0.2646,-0.2689,-0.2687,-0.2716,-0.2764,-0.2759,-0.2807,-0.2815,-0.2833,-0.2865,-0.2852,-0.2883,-0.2883,-0.2916,-0.2918,-0.297,-0.2978,-0.2983,-0.2983,-0.2985,-0.2985,-0.2999,-0.2994,-0.298,-0.2979,-0.2979,-0.2978,0,-0.2728,-0.2728,-0.2778,-0.2794,-0.2799,-0.2834,-0.2848,-0.2878,-0.2882,-0.2924,-0.2933,-0.2941,-0.2979,-0.2983,-0.3028,-0.303,-0.3093,-0.3087,-0.3085,-0.3085,-0.3126,-0.3123,-0.3254,-0.3272,-0.3155,-0.3156,-0.3157,0,-0.2782,-0.2814,-0.2833,-0.2852,-0.2863,-0.2896,-0.2915,-0.2912,-0.2934,-0.2961,-0.2988,-0.3024,-0.3053,-0.3115,-0.3127,-0.3162,-0.3158,-0.3201,-0.3163,-0.3164,-0.3161,-0.316,-0.3164,-0.3209,-0.321,-0.3211,-0.3212,0,-0.2878,-0.2877,-0.2905,-0.2934,-0.2957,-0.298,-0.3001,-0.3019,-0.3019,-0.3044,-0.3082,-0.3104,-0.315,-0.3187,-0.3222,-0.3235,-0.3225,-0.3224,-0.3236,-0.3239,-0.3237,-0.3241,-0.3108,-0.3221,-0.322,-0.322,-0.3219,-0.3219,-0.2949,-0.2978,-0.2996,-0.3028,-0.3043,-0.3064,-0.3092,-0.31,-0.3131,-0.3166,-0.3163,-0.3205,-0.3228,-0.3273,-0.3289,-0.3325,-0.3311,-0.3327,-0.3331,-0.3336,-0.3341,-0.323,-0.3331,-0.333,-0.333,-0.333,-0.333,0,-0.3047,-0.3058,-0.3087,-0.3117,-0.3143,-0.3128,-0.3152,-0.3176,-0.3212,-0.3233,-0.3262,-0.3307,-0.3344,-0.3358,-0.3395,-0.342,-0.3417,-0.343,-0.3429,-0.3433,-0.335,-0.3338,-0.3433,-0.3433,-0.3433,-0.3433,-0.3433,-0.3432,-0.3101,-0.3149,-0.315,-0.3207,-0.3218,-0.3258,-0.3273,-0.3293,-0.331,-0.336,-0.3389,-0.3398,-0.3417,-0.3455,-0.3489,-0.3493,-0.3508,-0.3524,-0.3526,-0.3449,-0.3439,-0.3429,-0.3417,-0.3527,-0.3527,-0.3607,-0.3607,-0.3608]},{"header":{"parameterUnit":"m.s-1","parameterCategory":1,"la1":30.2991,"la2":30.254,"lo1":-89.0895,"lo2":-89.0444,"dy":0.0017,"dx":0.0017,"nx":28,"ny":28,"refTime":"2023-09-25T03:00:00:Z","depth":0,"parameterNumber":3,"parameterNumberName":"V-component_of_WINDS"},"data":[0,0,0,0,0,0,0,0,0,0,0,0,0,0,0,0,0,0,0,0,0,0,0,0,0,0,0,0,0,0,0,0,0,0,0,0,0,0,0,0,0,0,0,0,0,0,0,0,0,0,0,0,0,0,0,0,0,0,0.6181,0.6181,0,0.6188,0.6188,0.6188,0.6201,0.6201,0.6202,0.6202,0.6208,0.6208,0.6208,0,0,0,0,0,0,0,0,0,0,0,0,0,0.6177,0.6177,0.6181,0.6181,0.6181,0.6188,0.6188,0.6188,0.6201,0.6201,0.6202,0.6202,0.6208,0.6208,0.6208,0,0,0,0,0,0,0,0,0,0,0,0,0,0.6181,0.6177,0.6181,0.6188,0.6189,0.6188,0.6188,0.6188,0.6201,0.6201,0.6202,0.6202,0.6208,0.6208,0.6208,0.62,0,0,0.6208,0.6208,0,0,0,0,0,0,0,0,0.6181,0.6181,0.6187,0.6188,0.6189,0.6194,0.6189,0.6192,0.6201,0.6196,0.6202,0.6202,0.6203,0.6204,0.6204,0.62,0.6201,0.6208,0.6208,0.6208,0.6208,0,0,0,0,0,0,0,0.6181,0.6181,0.6184,0.6187,0.6188,0.6191,0.6192,0.619,0.6198,0.6197,0.6198,0.6198,0.6204,0.6204,0.6204,0.6201,0.6208,0.6208,0.6208,0.6208,0.619,0.619,0,0,0,0,0,0,0.6179,0.6181,0.6183,0.6184,0.6186,0.6191,0.6192,0.6192,0.6198,0.6199,0.6198,0.6199,0.6204,0.6204,0.6205,0.6195,0.6208,0.6208,0.6208,0.6191,0.619,0.619,0,0,0,0,0,0,0.6179,0.618,0.6183,0.6183,0.6183,0.619,0.619,0.6192,0.6192,0.6199,0.62,0.6197,0.6204,0.6205,0.6201,0.6195,0.6208,0.6208,0.6191,0.6191,0.619,0.6176,0,0,0,0,0,0,0.6179,0.6179,0.6177,0.6182,0.6183,0.618,0.619,0.6192,0.6192,0.6193,0.6198,0.6199,0.6205,0.6201,0.6201,0.6196,0.6208,0.6192,0.6191,0.619,0.6177,0.6175,0.6173,0,0,0,0,0,0.6179,0.6172,0.6176,0.6177,0.618,0.6179,0.618,0.6186,0.6192,0.6189,0.6193,0.6199,0.6196,0.6201,0.6201,0.6195,0.6192,0.6191,0.619,0.6178,0.6175,0.6173,0,0,0,0,0,0,0.6165,0.6173,0.6178,0.6173,0.6175,0.6181,0.6178,0.6184,0.6184,0.6185,0.6193,0.6194,0.619,0.6192,0.6197,0.6187,0.6195,0.6194,0.6186,0.6183,0.6182,0.6181,0.6208,0,0,0,0,0,0.6162,0.6161,0.6168,0.6163,0.6164,0.6171,0.6171,0.6175,0.6178,0.6179,0.6183,0.6185,0.6185,0.6184,0.6184,0.6178,0.6178,0.6174,0.6172,0.617,0.6169,0.6165,0.6163,0.6187,0.6187,0.6187,0,0,0.6154,0.6159,0.6158,0.616,0.6163,0.6161,0.6171,0.6169,0.6168,0.6179,0.6176,0.6179,0.6181,0.6176,0.6174,0.6178,0.6163,0.6169,0.6168,0.6168,0.6164,0.6162,0.616,0.6186,0.6186,0.6186,0,0,0.614,0.6143,0.6139,0.6142,0.6145,0.615,0.6149,0.6154,0.6157,0.6154,0.6161,0.616,0.6159,0.6161,0.6162,0.6148,0.6153,0.6148,0.6138,0.6134,0.6132,0.613,0.6124,0.6122,0.6147,0.6146,0.6146,0,0.613,0.6129,0.6136,0.6134,0.6135,0.6145,0.614,0.6142,0.6145,0.6145,0.615,0.6149,0.6152,0.6147,0.6143,0.6144,0.6142,0.6147,0.6131,0.613,0.6128,0.6123,0.6121,0.6146,0.6146,0.6146,0.6146,0,0.6116,0.6115,0.6111,0.6114,0.6115,0.6111,0.6118,0.6117,0.6122,0.6126,0.6123,0.6126,0.6127,0.6126,0.6131,0.6122,0.6124,0.613,0.6138,0.6125,0.612,0.6118,0.6145,0.6145,0.6145,0.6145,0,0,0.6093,0.6101,0.6099,0.61,0.6105,0.6104,0.6101,0.6102,0.6101,0.6103,0.61,0.6099,0.6105,0.6106,0.6111,0.6107,0.6095,0.6113,0.6114,0.6109,0.6084,0.6079,0.6077,0.6099,0.6099,0.6099,0.6084,0,0.6079,0.6075,0.6081,0.6075,0.6074,0.6083,0.608,0.6083,0.6086,0.6085,0.6089,0.6088,0.6096,0.6096,0.6093,0.6097,0.609,0.6099,0.6096,0.6096,0.6094,0.6074,0.6069,0.6055,0.6082,0.6082,0.6081,0,0.6063,0.6064,0.6057,0.6062,0.6062,0.6059,0.606,0.606,0.6062,0.6065,0.6066,0.6072,0.6069,0.6077,0.6073,0.6078,0.6078,0.6079,0.6079,0.6079,0.6087,0.6073,0.6051,0.6048,0.6079,0.6079,0.6079,0,0.6045,0.6046,0.6042,0.6043,0.6048,0.6046,0.6048,0.6052,0.6052,0.6053,0.6053,0.6053,0.6053,0.6053,0.6059,0.6065,0.6054,0.6063,0.6055,0.6055,0.6052,0.6052,0.6029,0.6053,0.6053,0.6053,0.6053,0,0.6029,0.6024,0.6034,0.6031,0.6026,0.6034,0.6029,0.6032,0.6035,0.6033,0.6041,0.6039,0.6047,0.6046,0.605,0.6046,0.6046,0.6048,0.6049,0.6046,0.6046,0.6046,0.6046,0.6052,0.6053,0.6053,0.6053,0,0.6009,0.6015,0.6011,0.6017,0.6019,0.6015,0.6019,0.6017,0.6021,0.6018,0.6018,0.6025,0.6023,0.603,0.6029,0.6032,0.6025,0.6028,0.6024,0.6025,0.6017,0.6017,0.5992,0.5989,0.6015,0.6015,0.6015,0,0.5998,0.5994,0.6,0.5999,0.6001,0.6,0.6,0.6007,0.6007,0.601,0.6007,0.6006,0.6006,0.6004,0.6008,0.6008,0.6011,0.6002,0.6011,0.6008,0.601,0.6009,0.6009,0.6,0.5999,0.5999,0.5999,0,0.5977,0.598,0.598,0.598,0.598,0.5981,0.5983,0.5982,0.599,0.5989,0.5988,0.5988,0.5987,0.5986,0.5987,0.5989,0.5995,0.5996,0.5994,0.5992,0.5989,0.599,0.6018,0.5997,0.5997,0.5997,0.5997,0.5997,0.596,0.5957,0.5961,0.596,0.5962,0.5963,0.5961,0.5965,0.5964,0.5965,0.5969,0.5967,0.597,0.5971,0.5973,0.5971,0.5975,0.5972,0.5972,0.5971,0.5969,0.599,0.5971,0.5971,0.5971,0.5971,0.5971,0,0.5939,0.5942,0.5941,0.5943,0.5942,0.5949,0.595,0.5949,0.5947,0.5949,0.5949,0.5947,0.5947,0.5951,0.5951,0.5948,0.5951,0.5948,0.5948,0.5948,0.5966,0.5967,0.5945,0.5945,0.5945,0.5945,0.5945,0.5945,0.5928,0.5923,0.5927,0.5924,0.5926,0.5924,0.5925,0.5926,0.5927,0.5925,0.5924,0.5927,0.593,0.593,0.5929,0.5931,0.593,0.5925,0.5928,0.5944,0.5947,0.5949,0.595,0.5925,0.5925,0.591,0.5909,0.5909]}]]